Terminal Aerodrome Forecast
Issued by NWS

Home | Current Version | Previous Version | Text Only | Print | Product List | Glossary On
Versions: 1 2 3 4 5 6 7 8 9 10 11 12 13 14 15 16 17 18 19 20
566
FTUS43 KIND 290520
TAFHUF
TAF
KHUF 290520Z 2906/3006 30002KT 4SM BR OVC100
     FM290900 00000KT 4SM BR OVC050
      TEMPO 2909/2913 1 1/2SM BR BKN100
     FM291300 26003KT 4SM BR OVC025
     FM291600 26003KT P6SM VCTS BKN050CB=

USA.gov is the U.S. government's official web portal to all federal, state and local government web resources and services.